Regional Weather Roundup
Issued by NWS

Home | Current Version | Previous Version | Text Only | Print | Product List | Glossary On
Versions: 1 2 3 4 5 6 7 8 9 10 11 12 13 14 15 16 17 18 19 20 21 22 23 24 25 26 27 28 29 30 31 32 33 34 35 36 37 38 39 40 41 42 43 44 45 46 47 48 49 50
000
ASUS43 KOAX 130603
RWRNE

WEATHER ROUNDUP FOR NEBRASKA
NATIONAL WEATHER SERVICE OMAHA NE
100 AM CDT THU AUG 13 2020

NOTES: SATELLITE DATA IS BEING USED TO AUGMENT CLOUD COVER ABOVE
       12000 FEET.
       "FAIR" INDICATES FEW OR NO CLOUDS BELOW 12,000 FEET WITH NO
       SIGNIFICANT WEATHER AND/OR OBSTRUCTIONS TO VISIBILITY.


NEZ001>004-019>022-054>056-130700-
NEBRASKA PANHANDLE

CITY           SKY/WX    TMP DP  RH WIND       PRES   REMARKS
SCOTTSBLUFF    PTCLDY    70  57  63 E13       30.01S
6HR MIN TEMP:  68; 6HR MAX TEMP:  91; 6HR PCP: TRACE;

ALLIANCE       MOCLDY    68  51  54 S10       30.00S
6HR MIN TEMP:  65; 6HR MAX TEMP:  86; 6HR PCP:  0.10;

CHADRON        PTCLDY    78  50  37 S22G35    29.89F
6HR MIN TEMP:  78; 6HR MAX TEMP:  91;

GORDON         FAIR      69  49  48 S10       29.94F
6HR MIN TEMP:  67; 6HR MAX TEMP:  78; 6HR PCP:  0.02;

KIMBALL        PTCLDY    69  60  73 S6        30.07F
SIDNEY         MOCLDY    68  61  78 SE7       30.03F
6HR MIN TEMP:  65; 6HR MAX TEMP:  78; 6HR PCP:  0.30;

$$

NEZ057>060-069>072-079>082-130700-
SOUTHWEST NEBRASKA

CITY           SKY/WX    TMP DP  RH WIND       PRES   REMARKS
NORTH PLATTE   PTCLDY    71  63  75 CALM      30.00R
6HR MIN TEMP:  70; 6HR MAX TEMP:  88;

IMPERIAL       PTCLDY    72  67  84 S9G21     30.01R
6HR MIN TEMP:  70; 6HR MAX TEMP:  87;

LEXINGTON      CLEAR     71  68  90 S8        29.99F
MCCOOK         CLEAR     71  66  84 SE7       29.99S
6HR MIN TEMP:  70; 6HR MAX TEMP:  87;

OGALLALA       LGT RAIN  73  66  78 E3        30.06R
$$

NEZ005>010-023>029-035>040-094-130700-
NORTH CENTRAL NEBRASKA

CITY           SKY/WX    TMP DP  RH WIND       PRES   REMARKS
VALENTINE      CLOUDY    75  51  43 E10       29.84S
6HR MIN TEMP:  75; 6HR MAX TEMP:  89;

AINSWORTH      MOCLDY    73  56  56 S16       29.88F
BROKEN BOW     PTCLDY    69  66  90 S3        29.99F
6HR MIN TEMP:  69; 6HR MAX TEMP:  86;

O`NEILL        PTCLDY    73  67  82 S8        29.95S
ORD            PTCLDY    70  67  90 SE7       29.96F
6HR MIN TEMP:  69; 6HR MAX TEMP:  86;

THEDFORD       PTCLDY    71  55  57 S10       29.96S
$$

NEZ041-046>049-061>064-073>077-083>087-130700-
SOUTH CENTRAL NEBRASKA

CITY           SKY/WX    TMP DP  RH WIND       PRES   REMARKS
GRAND ISLAND   CLEAR     73  68  84 S9        29.98R
6HR MIN TEMP:  73; 6HR MAX TEMP:  85;

AURORA         CLEAR     73  71  91 S8        29.97S
HASTINGS       CLEAR     72  68  87 S7        29.98F
6HR MIN TEMP:  72; 6HR MAX TEMP:  86;

HEBRON         CLEAR     73  70  92 SE6       29.96F
HOLDREGE       PTCLDY    71  68  92 S3        29.99R
KEARNEY        CLEAR     71  69  93 S8        29.99R
YORK           CLEAR     73  73 100 S8        29.97S
$$

NEZ011>018-030>034-042>045-130700-
NORTHEAST NEBRASKA

CITY           SKY/WX    TMP DP  RH WIND       PRES   REMARKS
NORFOLK        CLEAR     72  69  90 CALM      29.99R
6HR MIN TEMP:  72; 6HR MAX TEMP:  84;

ALBION         CLEAR     71  70  96 CALM      29.99R
BLAIR          PTCLDY    74  73  96 SE6       29.99S
COLUMBUS       CLEAR     72  71  97 SE7       29.98R
FREMONT        CLEAR     75  72  89 SE9       29.99R
TEKAMAH        CLEAR     68  67  96 S3        29.97S
6HR MIN TEMP:  68; 6HR MAX TEMP:  83;

WAYNE          CLEAR     71  69  95 S3        29.97R
$$

NEZ050>053-065>068-078-088>093-130700-
SOUTHEAST NEBRASKA

CITY           SKY/WX    TMP DP  RH WIND       PRES   REMARKS
LINCOLN        CLEAR     74  70  87 SE7       29.98S
6HR MIN TEMP:  71; 6HR MAX TEMP:  81;

OMAHA EPPLEY   PTCLDY    76  73  91 SE9       29.98S
6HR MIN TEMP:  76; 6HR MAX TEMP:  83;

BEATRICE       CLEAR     74  71  91 SE5       29.98S
FALLS CITY     MOCLDY    75  73  93 SE5       29.98F
6HR MIN TEMP:  73; 6HR MAX TEMP:  80; 6HR PCP: TRACE;

NEBRASKA CITY  MOCLDY    76  76 100 SE6       30.00S
PLATTSMOUTH    CLOUDY    75  74  95 SE5       30.00S
$$

NEZ044-045-051>053-067-130700-
OMAHA AREA

CITY           SKY/WX    TMP DP  RH WIND       PRES   REMARKS
OMAHA EPPLEY   PTCLDY    76  73  91 SE9       29.98S
6HR MIN TEMP:  76; 6HR MAX TEMP:  83;

BLAIR          PTCLDY    74  73  96 SE6       29.99S
FREMONT        CLEAR     75  72  89 SE9       29.99R
MILLARD        CLEAR     76  73  90 SE5       29.98F
OFFUTT AFB     PTCLDY    73  72  94 CALM      29.98S
PLATTSMOUTH    CLOUDY    75  74  95 SE5       30.00S
WAHOO          FAIR      72  72 100 SE7       29.98S
$$



USA.gov is the U.S. government's official web portal to all federal, state and local government web resources and services.